User: anonymous   Login
Location: Caltech
(34.1382°N, 118.1253°W)
Time: 04:25:46
(UTC-08:00)
Language:

Cosmos 1939 Rocket - Orbit

View from above orbital plane
View from above orbital plane
View from above satellite
View from above satellite

Ground track
Ground track

The orbit data is extracted from the following two-line orbital elements,

1 19046U 88032B   15058.17087634  .00002320  00000-0  18520-3 0  9992
2 19046 097.6214 112.8565 0040683 312.8483 046.9325 15.00630988446428
Epoch (UTC): 27 February 2015 04:06:03
Eccentricity: 0.0040683
inclination: 97.6214°
perigee height: 537 km
apogee height: 593 km
right ascension of ascending node: 112.8565°
argument of perigee: 312.8483°
revolutions per day: 15.00630988
mean anomaly at epoch: 46.9325°
orbit number at epoch: 44642

The dashed part of the orbit path shows where the satellite is in the earth's shadow,  

DLR